This is the latest recevied weather packets stored in our database for station/object KI7CSN-13. If no packets are shown the sender has not sent any weather packets the latest 10 day(s).
| Time | Temp. | Humidity | Pressure | Rain* | Wind** | Luminosity | Snow |
|---|---|---|---|---|---|---|---|
| 1777656771 | 22.78° C | 20% | 983.3 hPa | 0 mm | - | - | - |
| 1777656472 | 23.33° C | 19% | 983.3 hPa | 0 mm | - | - | - |
| 1777656171 | 22.78° C | 20% | 983.4 hPa | 0 mm | - | - | - |
| 1777655871 | 22.78° C | 20% | 983.4 hPa | 0 mm | - | - | - |
| 1777655571 | 23.33° C | 20% | 983.4 hPa | 0 mm | - | - | - |
| 1777655272 | 22.22° C | 17% | 983.4 hPa | 0 mm | - | - | - |
| 1777654971 | 21.67° C | 17% | 983.3 hPa | 0 mm | - | - | - |
| 1777654672 | 22.22° C | 17% | 983.4 hPa | 0 mm | - | - | - |
| 1777654372 | 22.78° C | 17% | 983.3 hPa | 0 mm | - | - | - |
| 1777654072 | 21.67° C | 18% | 983.4 hPa | 0 mm | - | - | - |
| 1777653772 | 21.67° C | 18% | 983.2 hPa | 0 mm | - | - | - |
| 1777653472 | 21.11° C | 18% | 983.3 hPa | 0 mm | - | - | - |
| 1777653172 | 21.67° C | 18% | 983.3 hPa | 0 mm | - | - | - |
| 1777652872 | 21.11° C | 19% | 983.2 hPa | 0 mm | - | - | - |
| 1777652572 | 21.11° C | 20% | 983.2 hPa | 0 mm | - | - | - |
| 1777652272 | 21.11° C | 20% | 983.2 hPa | 0 mm | - | - | - |
| 1777651972 | 20.56° C | 20% | 983.2 hPa | 0 mm | - | - | - |
| 1777651672 | 20.56° C | 20% | 983.1 hPa | 0 mm | - | - | - |
| 1777651372 | 20° C | 20% | 983.1 hPa | 0 mm | - | - | - |
| 1777651072 | 20° C | 22% | 983.1 hPa | 0 mm | - | - | - |
| 1777650772 | 19.44° C | 22% | 983.1 hPa | 0 mm | - | - | - |
| 1777650472 | 18.89° C | 21% | 983.1 hPa | 0 mm | - | - | - |
| 1777650172 | 19.44° C | 22% | 982.9 hPa | 0 mm | - | - | - |
| 1777649872 | 18.89° C | 24% | 982.9 hPa | 0 mm | - | - | - |
| 1777649572 | 18.89° C | 24% | 982.8 hPa | 0 mm | - | - | - |
* Rain latest hour (hover to see other rain measurements)
** Current wind speed in m/s (hover to see current wind gust speed)